Tracking 20942 objects as of 4-Jul-2020
HD Live streaming from Space Station
objects crossing your sky now

MOLNIYA 3-8

Track MOLNIYA 3-8 now!
MOLNIYA 3-8 is classified as:


NORAD ID: 10455
Int'l Code: 1977-105A
Perigee: 870.6 km
Apogee: 39,505.3 km
Inclination: 62.3 °
Period: 717.9 minutes
Semi major axis: 26558 km
RCS: 13.5006 m2 (large)
Launch date: October 28, 1977
Source: Commonwealth of Independent States (former USSR) (CIS)
Launch site: PLESETSK MISSILE AND SPACE COMPLEX (PKMTR)
aabbcc
Your satellite tracking list
Your tracking list is empty




NASA's NSSDC Master Catalog

Two Line Element Set (TLE):
1 10455U 77105A   20185.75556585 -.00001254 +00000-0 -21788-2 0  9999
2 10455 062.3112 108.3160 7273377 276.6615 012.7783 02.00579177312822
Source of the keplerian elements: AFSPC